Time,TemperatureF,DewpointF,PressureIn,WindDirection,WindDirectionDegrees,WindSpeedMPH,WindSpeedGustMPH,Humidity,HourlyPrecipIn,Conditions,Clouds,dailyrainin,SoftwareType,DateUTC
2013-07-30 00:00:00,61.7,58.1,29.72,NNW,336,0.0,0.0,88,0.00,,,0.13,Wunderground v.1.15,2013-07-30 04:00:00,
2013-07-30 00:04:00,61.5,57.9,29.71,NNW,336,0.0,0.0,88,0.00,,,0.00,Wunderground v.1.15,2013-07-30 04:04:00,
2013-07-30 00:10:00,61.2,57.9,29.71,NNW,336,0.0,0.0,89,0.00,,,0.00,Wunderground v.1.15,2013-07-30 04:10:00,
2013-07-30 00:20:00,62.3,57.1,29.71,WNW,295,1.0,1.0,83,0.00,,,0.00,Wunderground v.1.15,2013-07-30 04:20:00,
2013-07-30 00:30:00,63.2,56.6,29.72,WNW,295,1.0,1.0,79,0.00,,,0.00,Wunderground v.1.15,2013-07-30 04:30:00,
2013-07-30 00:40:00,63.5,56.5,29.71,WNW,295,0.0,0.0,78,0.00,,,0.00,Wunderground v.1.15,2013-07-30 04:40:00,
2013-07-30 00:50:00,63.3,56.3,29.72,WNW,295,0.0,0.0,78,0.00,,,0.00,Wunderground v.1.15,2013-07-30 04:50:00,
2013-07-30 01:00:00,63.4,57.1,29.72,WNW,300,0.0,0.0,80,0.00,,,0.00,Wunderground v.1.15,2013-07-30 05:00:00,
2013-07-30 01:10:00,63.4,57.1,29.72,WNW,302,1.0,1.0,80,0.00,,,0.00,Wunderground v.1.15,2013-07-30 05:10:00,
2013-07-30 01:20:00,63.4,57.5,29.72,NW,322,0.0,0.0,81,0.00,,,0.00,Wunderground v.1.15,2013-07-30 05:20:00,
2013-07-30 01:25:00,63.3,57.7,29.72,NW,323,0.0,0.0,82,0.00,,,0.00,Wunderground v.1.15,2013-07-30 05:25:00,
2013-07-30 01:30:00,63.2,57.6,29.72,WNW,291,0.0,4.0,82,0.00,,,0.00,Wunderground v.1.15,2013-07-30 05:30:00,
2013-07-30 01:35:00,63.2,57.6,29.72,NNW,331,2.0,4.0,82,0.00,,,0.00,Wunderground v.1.15,2013-07-30 05:35:00,
2013-07-30 01:40:00,62.9,58.0,29.72,NNW,331,2.0,2.0,84,0.00,,,0.00,Wunderground v.1.15,2013-07-30 05:40:00,
2013-07-30 01:50:00,62.1,57.9,29.72,NNW,331,0.0,0.0,86,0.00,,,0.00,Wunderground v.1.15,2013-07-30 05:50:00,
2013-07-30 01:55:00,61.7,57.5,29.72,NNW,331,0.0,0.0,86,0.00,,,0.00,Wunderground v.1.15,2013-07-30 05:55:00,
2013-07-30 02:00:00,61.4,57.5,29.72,NNW,331,1.0,1.0,87,0.00,,,0.00,Wunderground v.1.15,2013-07-30 06:00:00,
2013-07-30 02:05:00,61.3,57.7,29.72,NNW,331,1.0,1.0,88,0.00,,,0.00,Wunderground v.1.15,2013-07-30 06:05:00,
2013-07-30 02:15:00,61.2,57.3,29.72,NNW,330,1.0,1.0,87,0.00,,,0.00,Wunderground v.1.15,2013-07-30 06:15:00,
2013-07-30 02:20:00,61.5,57.6,29.72,NNW,330,2.0,2.0,87,0.00,,,0.00,Wunderground v.1.15,2013-07-30 06:20:00,
2013-07-30 02:30:00,61.6,57.7,29.72,NNW,330,0.0,0.0,87,0.00,,,0.00,Wunderground v.1.15,2013-07-30 06:30:00,
2013-07-30 02:40:00,61.5,57.6,29.73,NNW,330,0.0,0.0,87,0.00,,,0.00,Wunderground v.1.15,2013-07-30 06:40:00,
2013-07-30 02:50:00,61.3,57.4,29.72,NNW,331,1.0,1.0,87,0.00,,,0.00,Wunderground v.1.15,2013-07-30 06:50:00,
2013-07-30 03:00:00,61.2,57.3,29.73,NNW,331,1.0,3.0,87,0.00,,,0.00,Wunderground v.1.15,2013-07-30 07:00:00,
2013-07-30 03:10:00,61.0,57.1,29.72,NNW,331,1.0,1.0,87,0.00,,,0.00,Wunderground v.1.15,2013-07-30 07:10:00,
2013-07-30 03:15:00,60.8,56.9,29.72,NNW,331,1.0,2.0,87,0.00,,,0.00,Wunderground v.1.15,2013-07-30 07:15:00,
2013-07-30 03:25:00,60.6,56.7,29.72,NNW,331,1.0,2.0,87,0.00,,,0.00,Wunderground v.1.15,2013-07-30 07:25:00,
2013-07-30 03:30:00,60.4,56.5,29.72,NNW,331,1.0,1.0,87,0.00,,,0.00,Wunderground v.1.15,2013-07-30 07:30:00,
2013-07-30 03:40:00,59.9,56.6,29.72,NNW,331,0.0,0.0,89,0.00,,,0.00,Wunderground v.1.15,2013-07-30 07:40:00,
2013-07-30 03:50:00,59.4,56.5,29.72,NNW,331,0.0,0.0,90,0.00,,,0.00,Wunderground v.1.15,2013-07-30 07:50:00,
2013-07-30 04:00:00,59.4,55.8,29.72,NNW,331,0.0,3.0,88,0.00,,,0.00,Wunderground v.1.15,2013-07-30 08:00:00,
2013-07-30 04:10:00,59.6,55.7,29.72,NNW,331,1.0,1.0,87,0.00,,,0.00,Wunderground v.1.15,2013-07-30 08:10:00,
2013-07-30 04:20:00,59.4,55.8,29.72,NNW,331,0.0,0.0,88,0.00,,,0.00,Wunderground v.1.15,2013-07-30 08:20:00,
2013-07-30 04:30:00,59.1,55.9,29.72,NNW,331,0.0,0.0,89,0.00,,,0.00,Wunderground v.1.15,2013-07-30 08:30:00,
2013-07-30 04:40:00,58.7,55.2,29.73,NNW,331,0.0,0.0,88,0.00,,,0.00,Wunderground v.1.15,2013-07-30 08:40:00,
2013-07-30 04:50:00,58.5,55.0,29.73,NNW,331,0.0,0.0,88,0.00,,,0.00,Wunderground v.1.15,2013-07-30 08:50:00,
2013-07-30 04:55:00,58.5,55.0,29.73,NNW,331,0.0,1.0,88,0.00,,,0.00,Wunderground v.1.15,2013-07-30 08:55:00,
2013-07-30 05:00:00,58.4,54.9,29.73,NNW,331,0.0,0.0,88,0.00,,,0.00,Wunderground v.1.15,2013-07-30 09:00:00,
2013-07-30 05:10:00,58.4,54.5,29.73,NNW,331,0.0,0.0,87,0.00,,,0.00,Wunderground v.1.15,2013-07-30 09:10:00,
2013-07-30 05:15:00,58.5,54.6,29.73,NNW,331,0.0,1.0,87,0.00,,,0.00,Wunderground v.1.15,2013-07-30 09:15:00,
2013-07-30 05:25:00,58.2,54.3,29.73,NNW,331,0.0,0.0,87,0.00,,,0.00,Wunderground v.1.15,2013-07-30 09:25:00,
2013-07-30 05:30:00,58.1,54.6,29.73,NNW,331,0.0,0.0,88,0.00,,,0.00,Wunderground v.1.15,2013-07-30 09:30:00,
2013-07-30 05:40:00,57.5,54.0,29.73,NNW,331,0.0,0.0,88,0.00,,,0.00,Wunderground v.1.15,2013-07-30 09:40:00,
2013-07-30 05:50:00,57.6,54.4,29.73,NNW,331,0.0,0.0,89,0.00,,,0.00,Wunderground v.1.15,2013-07-30 09:50:00,
2013-07-30 06:00:00,57.6,54.4,29.74,NNW,331,0.0,0.0,89,0.00,,,0.00,Wunderground v.1.15,2013-07-30 10:00:00,
2013-07-30 06:10:00,57.4,54.5,29.74,NNW,331,0.0,0.0,90,0.00,,,0.00,Wunderground v.1.15,2013-07-30 10:10:00,
2013-07-30 06:15:00,57.4,54.8,29.74,NNW,331,0.0,0.0,91,0.00,,,0.00,Wunderground v.1.15,2013-07-30 10:15:00,
2013-07-30 06:20:00,57.3,55.0,29.74,NNW,331,0.0,0.0,92,0.00,,,0.00,Wunderground v.1.15,2013-07-30 10:20:00,
2013-07-30 06:30:00,56.8,54.2,29.74,NNW,331,1.0,2.0,91,0.00,,,0.00,Wunderground v.1.15,2013-07-30 10:30:00,
2013-07-30 06:35:00,56.5,54.2,29.75,NNW,331,1.0,2.0,92,0.00,,,0.00,Wunderground v.1.15,2013-07-30 10:35:00,
2013-07-30 06:40:00,56.6,54.3,29.75,West,273,0.0,0.0,92,0.00,,,0.00,Wunderground v.1.15,2013-07-30 10:40:00,
2013-07-30 06:50:00,57.6,55.3,29.75,West,273,0.0,0.0,92,0.00,,,0.00,Wunderground v.1.15,2013-07-30 10:50:00,
2013-07-30 06:55:00,58.6,56.0,29.75,West,273,0.0,0.0,91,0.00,,,0.00,Wunderground v.1.15,2013-07-30 10:55:00,
2013-07-30 07:00:00,59.5,55.9,29.75,West,273,0.0,0.0,88,0.00,,,0.00,Wunderground v.1.15,2013-07-30 11:00:00,
2013-07-30 07:05:00,60.2,56.3,29.75,West,273,0.0,0.0,87,0.00,,,0.00,Wunderground v.1.15,2013-07-30 11:05:00,
2013-07-30 07:10:00,60.3,56.1,29.75,West,273,0.0,0.0,86,0.00,,,0.00,Wunderground v.1.15,2013-07-30 11:10:00,
2013-07-30 07:15:00,60.4,56.2,29.75,West,273,0.0,0.0,86,0.00,,,0.00,Wunderground v.1.15,2013-07-30 11:15:00,
2013-07-30 07:25:00,61.1,56.9,29.75,West,273,0.0,0.0,86,0.00,,,0.00,Wunderground v.1.15,2013-07-30 11:25:00,
2013-07-30 07:30:00,61.9,56.7,29.75,West,273,0.0,0.0,83,0.00,,,0.00,Wunderground v.1.15,2013-07-30 11:30:00,
2013-07-30 07:35:00,62.6,56.7,29.75,West,269,0.0,0.0,81,0.00,,,0.00,Wunderground v.1.15,2013-07-30 11:35:00,
2013-07-30 07:40:00,63.0,56.7,29.75,West,264,0.0,0.0,80,0.00,,,0.00,Wunderground v.1.15,2013-07-30 11:40:00,
2013-07-30 07:50:00,64.5,58.2,29.75,SSE,167,0.0,3.0,80,0.00,,,0.00,Wunderground v.1.15,2013-07-30 11:50:00,
2013-07-30 07:55:00,64.7,58.4,29.75,SSE,167,1.0,3.0,80,0.00,,,0.00,Wunderground v.1.15,2013-07-30 11:55:00,
2013-07-30 08:00:00,64.7,57.0,29.75,South,185,1.0,1.0,76,0.00,,,0.00,Wunderground v.1.15,2013-07-30 12:00:00,
2013-07-30 08:05:00,64.8,56.7,29.75,WSW,242,1.0,1.0,75,0.00,,,0.00,Wunderground v.1.15,2013-07-30 12:05:00,
2013-07-30 08:15:00,64.2,57.9,29.75,NW,306,3.0,7.0,80,0.00,,,0.00,Wunderground v.1.15,2013-07-30 12:15:00,
2013-07-30 08:20:00,64.1,54.9,29.75,WNW,302,3.0,4.0,72,0.00,,,0.00,Wunderground v.1.15,2013-07-30 12:20:00,
2013-07-30 08:30:00,63.8,55.0,29.76,NNE,32,4.0,4.0,73,0.00,,,0.00,Wunderground v.1.15,2013-07-30 12:30:00,
2013-07-30 08:35:00,64.4,55.9,29.76,WNW,302,3.0,4.0,74,0.00,,,0.00,Wunderground v.1.15,2013-07-30 12:35:00,
2013-07-30 08:40:00,65.1,56.6,29.76,North,5,3.0,3.0,74,0.00,,,0.00,Wunderground v.1.15,2013-07-30 12:40:00,
2013-07-30 08:50:00,65.4,56.1,29.76,WNW,298,2.0,2.0,72,0.00,,,0.00,Wunderground v.1.15,2013-07-30 12:50:00,
2013-07-30 08:55:00,65.0,55.4,29.76,NNW,347,3.0,5.0,71,0.00,,,0.00,Wunderground v.1.15,2013-07-30 12:55:00,
2013-07-30 09:00:00,64.7,55.5,29.76,WSW,258,5.0,5.0,72,0.00,,,0.00,Wunderground v.1.15,2013-07-30 13:00:00,
2013-07-30 09:05:00,64.8,55.2,29.77,West,262,5.0,8.0,71,0.00,,,0.00,Wunderground v.1.15,2013-07-30 13:05:00,
2013-07-30 09:15:00,64.9,55.7,29.77,NNW,333,5.0,5.0,72,0.00,,,0.00,Wunderground v.1.15,2013-07-30 13:15:00,
2013-07-30 09:24:00,64.9,55.3,29.77,West,267,6.0,11.0,71,0.00,,,0.00,Wunderground v.1.15,2013-07-30 13:24:00,
2013-07-30 09:30:00,64.7,55.1,29.77,WNW,284,5.0,5.0,71,0.00,,,0.00,Wunderground v.1.15,2013-07-30 13:30:00,
2013-07-30 09:40:00,65.9,55.8,29.77,North,5,3.0,3.0,70,0.00,,,0.00,Wunderground v.1.15,2013-07-30 13:40:00,
2013-07-30 09:45:00,66.3,54.6,29.77,NW,304,3.0,5.0,66,0.00,,,0.00,Wunderground v.1.15,2013-07-30 13:45:00,
2013-07-30 09:55:00,66.1,54.4,29.77,WSW,253,5.0,7.0,66,0.00,,,0.00,Wunderground v.1.15,2013-07-30 13:55:00,
2013-07-30 10:00:00,66.5,54.8,29.77,WNW,289,5.0,6.0,66,0.00,,,0.00,Wunderground v.1.15,2013-07-30 14:00:00,
2013-07-30 10:05:00,66.3,54.2,29.77,SW,215,6.0,6.0,65,0.00,,,0.00,Wunderground v.1.15,2013-07-30 14:05:00,
2013-07-30 10:10:00,67.0,55.3,29.77,NW,306,4.0,4.0,66,0.00,,,0.00,Wunderground v.1.15,2013-07-30 14:10:00,
2013-07-30 10:20:00,66.2,54.1,29.77,NW,309,6.0,6.0,65,0.00,,,0.00,Wunderground v.1.15,2013-07-30 14:20:00,
2013-07-30 10:25:00,66.8,55.5,29.77,NNE,22,4.0,6.0,67,0.00,,,0.00,Wunderground v.1.15,2013-07-30 14:25:00,
2013-07-30 10:35:00,67.4,54.8,29.77,West,272,5.0,9.0,64,0.00,,,0.00,Wunderground v.1.15,2013-07-30 14:35:00,
2013-07-30 10:45:00,67.0,55.7,29.77,SW,236,4.0,7.0,67,0.00,,,0.00,Wunderground v.1.15,2013-07-30 14:45:00,
2013-07-30 10:50:00,67.8,53.4,29.76,WNW,289,3.0,5.0,60,0.00,,,0.00,Wunderground v.1.15,2013-07-30 14:50:00,
2013-07-30 11:00:00,68.3,53.4,29.77,West,272,3.0,3.0,59,0.00,,,0.00,Wunderground v.1.15,2013-07-30 15:00:00,
2013-07-30 11:10:00,68.4,53.5,29.76,WNW,284,3.0,12.0,59,0.00,,,0.00,Wunderground v.1.15,2013-07-30 15:10:00,
2013-07-30 11:20:00,66.4,53.0,29.77,West,262,7.0,7.0,62,0.00,,,0.00,Wunderground v.1.15,2013-07-30 15:20:00,
2013-07-30 11:30:00,68.3,51.5,29.76,WSW,245,4.0,6.0,55,0.00,,,0.00,Wunderground v.1.15,2013-07-30 15:30:00,
2013-07-30 11:35:00,69.0,51.7,29.76,WNW,284,4.0,6.0,54,0.00,,,0.00,Wunderground v.1.15,2013-07-30 15:35:00,
2013-07-30 11:40:00,67.9,52.1,29.76,WSW,252,5.0,5.0,57,0.00,,,0.00,Wunderground v.1.15,2013-07-30 15:40:00,
2013-07-30 11:50:00,67.4,53.9,29.76,NW,326,5.0,5.0,62,0.00,,,0.00,Wunderground v.1.15,2013-07-30 15:50:00,
2013-07-30 12:00:00,67.8,52.0,29.76,NW,306,5.0,6.0,57,0.00,,,0.00,Wunderground v.1.15,2013-07-30 16:00:00,
2013-07-30 12:10:00,68.4,54.0,29.75,WNW,300,4.0,4.0,60,0.00,,,0.00,Wunderground v.1.15,2013-07-30 16:10:00,
2013-07-30 12:15:00,68.9,54.9,29.75,North,355,3.0,4.0,61,0.00,,,0.00,Wunderground v.1.15,2013-07-30 16:15:00,
2013-07-30 12:20:00,69.2,53.3,29.76,NNW,348,4.0,4.0,57,0.00,,,0.00,Wunderground v.1.15,2013-07-30 16:20:00,
2013-07-30 12:25:00,69.8,56.2,29.75,NW,304,3.0,4.0,62,0.00,,,0.00,Wunderground v.1.15,2013-07-30 16:25:00,
2013-07-30 12:30:00,70.1,55.1,29.75,ESE,123,2.0,2.0,59,0.00,,,0.00,Wunderground v.1.15,2013-07-30 16:30:00,
2013-07-30 12:40:00,70.7,52.7,29.75,West,261,4.0,7.0,53,0.00,,,0.00,Wunderground v.1.15,2013-07-30 16:40:00,
2013-07-30 12:50:00,70.1,53.7,29.75,NW,305,5.0,5.0,56,0.00,,,0.00,Wunderground v.1.15,2013-07-30 16:50:00,
2013-07-30 13:00:00,71.4,56.3,29.75,NW,326,3.0,3.0,59,0.00,,,0.00,Wunderground v.1.15,2013-07-30 17:00:00,
2013-07-30 13:10:00,71.4,53.4,29.75,West,279,3.0,3.0,53,0.00,,,0.00,Wunderground v.1.15,2013-07-30 17:10:00,
2013-07-30 13:20:00,71.0,53.0,29.75,WNW,287,5.0,5.0,53,0.00,,,0.00,Wunderground v.1.15,2013-07-30 17:20:00,
2013-07-30 13:30:00,70.7,53.7,29.75,NW,315,4.0,4.0,55,0.00,,,0.00,Wunderground v.1.15,2013-07-30 17:30:00,
2013-07-30 13:40:00,68.9,52.6,29.75,NNW,339,5.0,5.0,56,0.00,,,0.00,Wunderground v.1.15,2013-07-30 17:40:00,
2013-07-30 13:50:00,69.0,55.0,29.75,NW,315,3.0,3.0,61,0.00,,,0.00,Wunderground v.1.15,2013-07-30 17:50:00,
2013-07-30 14:00:00,69.0,53.6,29.75,NW,309,4.0,4.0,58,0.00,,,0.00,Wunderground v.1.15,2013-07-30 18:00:00,
2013-07-30 14:10:00,70.4,54.0,29.74,NNE,15,3.0,3.0,56,0.00,,,0.00,Wunderground v.1.15,2013-07-30 18:10:00,
2013-07-30 14:20:00,70.5,53.1,29.74,SW,217,5.0,5.0,54,0.00,,,0.00,Wunderground v.1.15,2013-07-30 18:20:00,
2013-07-30 14:30:00,70.3,54.8,29.74,West,270,4.0,4.0,58,0.00,,,0.00,Wunderground v.1.15,2013-07-30 18:30:00,
2013-07-30 14:40:00,71.1,53.1,29.74,WNW,288,3.0,3.0,53,0.00,,,0.00,Wunderground v.1.15,2013-07-30 18:40:00,
2013-07-30 14:49:00,69.6,53.7,29.74,NW,315,2.0,3.0,57,0.00,,,0.00,Wunderground v.1.15,2013-07-30 18:49:00,
2013-07-30 14:55:00,68.8,53.9,29.74,WNW,292,3.0,4.0,59,0.00,,,0.00,Wunderground v.1.15,2013-07-30 18:55:00,
2013-07-30 15:00:00,68.5,53.6,29.74,NNW,332,3.0,3.0,59,0.00,,,0.00,Wunderground v.1.15,2013-07-30 19:00:00,
2013-07-30 15:10:00,69.2,55.2,29.73,West,273,2.0,3.0,61,0.00,,,0.00,Wunderground v.1.15,2013-07-30 19:10:00,
2013-07-30 15:20:00,70.0,54.1,29.73,West,266,3.0,5.0,57,0.00,,,0.00,Wunderground v.1.15,2013-07-30 19:20:00,
2013-07-30 15:30:00,69.8,55.7,29.73,North,5,3.0,3.0,61,0.00,,,0.00,Wunderground v.1.15,2013-07-30 19:30:00,
2013-07-30 15:40:00,69.7,54.7,29.72,WNW,290,2.0,3.0,59,0.00,,,0.00,Wunderground v.1.15,2013-07-30 19:40:00,
2013-07-30 15:50:00,70.2,55.7,29.73,WNW,300,3.0,4.0,60,0.00,,,0.00,Wunderground v.1.15,2013-07-30 19:50:00,
2013-07-30 16:00:00,69.0,55.0,29.73,NNE,22,4.0,4.0,61,0.00,,,0.00,Wunderground v.1.15,2013-07-30 20:00:00,
2013-07-30 16:10:00,68.4,55.7,29.72,NW,311,2.0,2.0,64,0.00,,,0.00,Wunderground v.1.15,2013-07-30 20:10:00,
2013-07-30 16:20:00,69.6,58.2,29.72,NNW,337,1.0,2.0,67,0.00,,,0.00,Wunderground v.1.15,2013-07-30 20:20:00,
2013-07-30 16:30:00,71.0,55.5,29.72,WNW,294,4.0,4.0,58,0.00,,,0.00,Wunderground v.1.15,2013-07-30 20:30:00,
2013-07-30 16:40:00,71.2,55.7,29.72,NNW,333,5.0,5.0,58,0.00,,,0.00,Wunderground v.1.15,2013-07-30 20:40:00,
2013-07-30 16:50:00,70.7,54.7,29.71,NNW,328,4.0,7.0,57,0.00,,,0.00,Wunderground v.1.15,2013-07-30 20:50:00,
2013-07-30 16:55:00,71.0,56.4,29.71,West,278,4.0,7.0,60,0.00,,,0.00,Wunderground v.1.15,2013-07-30 20:55:00,
2013-07-30 17:00:00,71.4,56.3,29.71,West,259,4.0,11.0,59,0.00,,,0.00,Wunderground v.1.15,2013-07-30 21:00:00,
2013-07-30 17:10:00,72.0,56.9,29.71,SW,223,4.0,4.0,59,0.00,,,0.00,Wunderground v.1.15,2013-07-30 21:10:00,
2013-07-30 17:20:00,72.2,56.1,29.71,West,273,2.0,9.0,57,0.00,,,0.00,Wunderground v.1.15,2013-07-30 21:20:00,
2013-07-30 17:25:00,72.3,54.7,29.71,NW,326,3.0,9.0,54,0.00,,,0.00,Wunderground v.1.15,2013-07-30 21:25:00,
2013-07-30 17:30:00,71.9,54.3,29.71,WNW,283,5.0,7.0,54,0.00,,,0.00,Wunderground v.1.15,2013-07-30 21:30:00,
2013-07-30 17:35:00,71.8,54.3,29.71,West,281,5.0,7.0,54,0.00,,,0.00,Wunderground v.1.15,2013-07-30 21:35:00,
2013-07-30 17:40:00,71.8,54.3,29.71,WNW,282,4.0,8.0,54,0.00,,,0.00,Wunderground v.1.15,2013-07-30 21:40:00,
2013-07-30 17:50:00,71.6,54.6,29.71,WSW,250,5.0,5.0,55,0.00,,,0.00,Wunderground v.1.15,2013-07-30 21:50:00,
2013-07-30 18:00:00,71.8,54.8,29.71,West,269,3.0,5.0,55,0.00,,,0.00,Wunderground v.1.15,2013-07-30 22:00:00,
2013-07-30 18:09:00,72.1,54.5,29.72,NW,313,3.0,6.0,54,0.00,,,0.00,Wunderground v.1.15,2013-07-30 22:09:00,
2013-07-30 18:15:00,71.0,54.5,29.72,WNW,291,3.0,6.0,56,0.00,,,0.00,Wunderground v.1.15,2013-07-30 22:15:00,
2013-07-30 18:20:00,70.6,54.6,29.72,NW,306,3.0,3.0,57,0.00,,,0.00,Wunderground v.1.15,2013-07-30 22:20:00,
2013-07-30 18:25:00,70.6,54.6,29.72,WNW,282,3.0,4.0,57,0.00,,,0.00,Wunderground v.1.15,2013-07-30 22:25:00,
2013-07-30 18:30:00,70.0,54.5,29.72,WNW,289,3.0,4.0,58,0.00,,,0.00,Wunderground v.1.15,2013-07-30 22:30:00,
2013-07-30 18:40:00,70.0,54.5,29.72,West,279,3.0,4.0,58,0.00,,,0.00,Wunderground v.1.15,2013-07-30 22:40:00,
2013-07-30 18:45:00,70.1,55.1,29.73,WNW,296,4.0,4.0,59,0.00,,,0.00,Wunderground v.1.15,2013-07-30 22:45:00,
2013-07-30 18:50:00,70.3,55.3,29.72,WNW,286,3.0,3.0,59,0.00,,,0.00,Wunderground v.1.15,2013-07-30 22:50:00,
2013-07-30 18:55:00,70.2,55.2,29.73,WNW,300,3.0,3.0,59,0.00,,,0.00,Wunderground v.1.15,2013-07-30 22:55:00,
2013-07-30 19:05:00,70.0,55.5,29.73,WNW,286,2.0,6.0,60,0.00,,,0.00,Wunderground v.1.15,2013-07-30 23:05:00,
2013-07-30 19:10:00,69.7,55.2,29.73,NW,324,3.0,3.0,60,0.00,,,0.00,Wunderground v.1.15,2013-07-30 23:10:00,
2013-07-30 19:20:00,69.0,55.0,29.73,WNW,292,3.0,3.0,61,0.00,,,0.00,Wunderground v.1.15,2013-07-30 23:20:00,
2013-07-30 19:25:00,68.7,54.3,29.73,West,281,3.0,3.0,60,0.00,,,0.00,Wunderground v.1.15,2013-07-30 23:25:00,
2013-07-30 19:30:00,68.2,54.7,29.74,WNW,286,2.0,2.0,62,0.00,,,0.00,Wunderground v.1.15,2013-07-30 23:30:00,
2013-07-30 19:40:00,67.4,55.2,29.74,WNW,289,1.0,1.0,65,0.00,,,0.00,Wunderground v.1.15,2013-07-30 23:40:00,
2013-07-30 19:50:00,66.3,54.2,29.74,West,271,1.0,5.0,65,0.00,,,0.00,Wunderground v.1.15,2013-07-30 23:50:00,
2013-07-30 20:00:00,66.3,53.8,29.74,WNW,285,4.0,4.0,64,0.00,,,0.00,Wunderground v.1.15,2013-07-31 00:00:00,
2013-07-30 20:10:00,66.1,54.0,29.73,WNW,288,3.0,3.0,65,0.00,,,0.00,Wunderground v.1.15,2013-07-31 00:10:00,
2013-07-30 20:20:00,65.6,54.3,29.73,WNW,284,2.0,2.0,67,0.00,,,0.00,Wunderground v.1.15,2013-07-31 00:20:00,
2013-07-30 20:30:00,65.2,54.4,29.73,WNW,284,0.0,0.0,68,0.00,,,0.00,Wunderground v.1.15,2013-07-31 00:30:00,
2013-07-30 20:35:00,65.0,54.6,29.74,WNW,284,0.0,0.0,69,0.00,,,0.00,Wunderground v.1.15,2013-07-31 00:35:00,
2013-07-30 20:40:00,64.1,55.6,29.73,WNW,284,0.0,1.0,74,0.00,,,0.00,Wunderground v.1.15,2013-07-31 00:40:00,
2013-07-30 20:50:00,62.5,55.2,29.74,WNW,284,0.0,0.0,77,0.00,,,0.00,Wunderground v.1.15,2013-07-31 00:50:00,
2013-07-30 21:00:00,62.3,55.7,29.74,WNW,284,0.0,0.0,79,0.00,,,0.00,Wunderground v.1.15,2013-07-31 01:00:00,
2013-07-30 21:10:00,61.2,55.3,29.74,WNW,284,0.0,0.0,81,0.00,,,0.00,Wunderground v.1.15,2013-07-31 01:10:00,
2013-07-30 21:20:00,60.9,55.4,29.75,WNW,284,0.0,0.0,82,0.00,,,0.00,Wunderground v.1.15,2013-07-31 01:20:00,
2013-07-30 21:30:00,60.3,55.1,29.75,WNW,284,0.0,0.0,83,0.00,,,0.00,Wunderground v.1.15,2013-07-31 01:30:00,
2013-07-30 21:40:00,60.7,55.2,29.75,WNW,284,0.0,0.0,82,0.00,,,0.00,Wunderground v.1.15,2013-07-31 01:40:00,
2013-07-30 21:50:00,61.0,55.5,29.76,NNW,338,0.0,0.0,82,0.00,,,0.00,Wunderground v.1.15,2013-07-31 01:50:00,
2013-07-30 21:55:00,60.7,55.8,29.76,NNW,338,0.0,0.0,84,0.00,,,0.00,Wunderground v.1.15,2013-07-31 01:55:00,
2013-07-30 22:05:00,61.1,55.2,29.76,WNW,298,0.0,0.0,81,0.00,,,0.00,Wunderground v.1.15,2013-07-31 02:05:00,
2013-07-30 22:10:00,61.2,55.7,29.75,WNW,298,0.0,0.0,82,0.00,,,0.00,Wunderground v.1.15,2013-07-31 02:10:00,
2013-07-30 22:20:00,61.1,55.2,29.76,WNW,298,0.0,0.0,81,0.00,,,0.00,Wunderground v.1.15,2013-07-31 02:20:00,
2013-07-30 22:30:00,61.3,55.8,29.75,WNW,298,0.0,0.0,82,0.00,,,0.00,Wunderground v.1.15,2013-07-31 02:30:00,
2013-07-30 22:40:00,62.4,55.1,29.75,WNW,294,0.0,0.0,77,0.00,,,0.00,Wunderground v.1.15,2013-07-31 02:40:00,
2013-07-30 22:50:00,63.5,55.8,29.76,West,281,1.0,1.0,76,0.00,,,0.00,Wunderground v.1.15,2013-07-31 02:50:00,
2013-07-30 23:00:00,64.1,55.6,29.76,NW,307,3.0,3.0,74,0.00,,,0.00,Wunderground v.1.15,2013-07-31 03:00:00,
2013-07-30 23:10:00,63.9,55.8,29.76,WNW,300,3.0,3.0,75,0.00,,,0.00,Wunderground v.1.15,2013-07-31 03:10:00,
2013-07-30 23:20:00,63.7,55.6,29.76,WNW,288,2.0,2.0,75,0.00,,,0.00,Wunderground v.1.15,2013-07-31 03:20:00,
2013-07-30 23:30:00,63.2,55.5,29.76,West,267,2.0,4.0,76,0.00,,,0.00,Wunderground v.1.15,2013-07-31 03:30:00,
2013-07-30 23:40:00,63.2,55.9,29.76,WNW,302,3.0,4.0,77,0.00,,,0.00,Wunderground v.1.15,2013-07-31 03:40:00,
2013-07-30 23:50:00,62.9,55.6,29.76,NNW,327,2.0,3.0,77,0.00,,,0.00,Wunderground v.1.15,2013-07-31 03:50:00,